sat.trackr.live / text

‹ back to catalog

JINJUSAT-1B

NORAD 63210 · 2025-052A

PAYLOAD ACTIVE UNKNOWN

§ Identity

Operator
Country
SKOR
Launch date
2025-03-15
Launch site
AFWTR
Launch vehicle
Mass (kg)
RCS (m²)

External: N2YO · Heavens-Above · Gunter

§ Orbital elements

Epoch: 2026-05-25T04:06:40.288896Z

Period
93.95 min
Inclination
97.4029°
Eccentricity
0.0004384
Mean motion
15.32675020 rev/d
Perigee alt
464.8 km
Apogee alt
470.8 km
Semi-major
6,846.0 km
B*
5.1239e-4
RAAN
41.9057°
Arg perigee
138.6376°
Mean anomaly
221.5198°
Rev number
6,657

§ Raw data

JINJUSAT-1B1 63210U 25052A   26145.17129964  .00016110  00000+0  51239-3 0  99942 63210  97.4029  41.9057 0004384 138.6376 221.5198 15.32675020 66577

JSON: /api/v1/satellites/63210 · /tle

For live sub-satellite position, see the globe view (requires WebGL).

§ Visibility from observer

Set your observer location to see the next 7 days of passes ≥ 10°. The values pass through the URL so the page stays shareable.

No JS? Fill the form by hand. The geolocation button needs JavaScript.

§ Radio — SatNOGS DB

ModeDescriptionDownlinkUplink
BPSK Mode U - BPSK9k6 - AX.25 G3RUH - Telemetry 435.185 MHz

1 transmitter · refreshed weekly from db.satnogs.org